Wind_Speed
42 42 42 42 42 43 44 46 47 49 51 52 54 56 58 60 62 65 67 70 72 74 76 78 79 81 82 84 85 85 86 86 87 83 81 81 82 81 80 79 77 76 75
43 43 43 44 44 46 47 48 49 51 53 55 56 59 61 63 66 68 70 72 75 76 78 80 81 82 83 83 83 83 82 82 83 81 76 74 73 73 71 69 67 66 64
44 45 45 46 47 48 49 51 52 54 55 57 59 62 64 66 69 71 73 75 77 78 80 81 82 83 82 81 80 79 78 78 77 75 70 67 65 63 62 60 58 58 57
46 46 47 48 49 50 52 53 55 56 58 60 62 65 67 69 72 74 76 77 78 79 80 81 82 82 80 79 77 75 73 71 69 67 64 59 57 55 55 53 52 52 52
47 48 49 50 51 52 54 55 57 59 61 63 65 67 70 72 75 76 78 78 79 80 80 81 80 79 77 74 72 69 67 65 62 59 56 52 50 49 49 49 48 47 47
48 49 50 51 53 54 56 57 59 61 64 66 68 70 72 74 76 78 79 80 80 81 80 79 76 74 71 69 67 64 62 59 56 53 50 48 46 46 45 45 45 44 43
49 50 51 53 55 56 58 60 62 64 66 68 71 73 75 76 78 79 80 81 81 81 79 75 72 69 66 64 61 58 55 53 51 49 47 46 44 44 43 43 43 42 40
50 51 53 55 57 58 60 63 65 67 69 71 73 75 76 77 79 80 81 81 80 78 74 71 68 64 62 59 56 53 50 48 47 47 46 44 43 42 42 41 40 39 37
52 54 55 57 59 61 63 65 67 69 71 73 75 77 77 78 80 80 81 80 77 73 69 66 63 59 56 54 52 49 46 45 45 44 43 42 41 41 40 40 39 38 36
53 55 57 59 61 63 66 68 70 72 73 75 76 78 79 79 80 80 80 78 73 69 64 60 57 55 52 50 48 46 44 42 42 41 40 40 39 39 38 38 38 38 36
55 57 59 61 64 66 68 70 72 74 75 77 78 79 80 80 80 78 76 73 69 64 59 55 52 49 47 46 45 43 42 41 40 38 38 37 37 37 37 37 37 37 36
57 59 61 64 66 68 70 72 74 76 77 79 80 79 79 79 77 75 71 67 63 58 54 50 47 45 44 43 42 42 41 40 39 37 36 35 35 35 35 35 35 35 35
59 61 63 66 68 70 72 74 76 78 80 80 81 80 78 76 73 69 65 60 56 53 49 46 44 43 42 41 41 40 40 39 37 36 35 35 34 33 33 33 34 35 35
61 63 66 68 70 72 74 76 78 80 81 81 81 79 76 72 67 62 57 53 49 47 45 43 42 41 41 40 39 39 38 36 35 35 34 33 33 33 33 33 34 34 35
64 66 68 71 73 75 76 78 80 81 82 81 79 76 72 66 60 55 51 48 45 43 42 40 39 38 37 37 37 36 35 35 34 34 33 33 33 33 33 34 34 34 34
66 69 71 73 75 78 79 79 80 80 79 77 74 70 65 60 53 49 46 44 42 41 40 39 37 36 36 35 34 33 33 33 33 33 33 33 32 33 33 33 33 34 33
69 72 74 76 78 80 81 82 80 77 74 71 67 63 58 53 48 45 43 41 40 40 39 38 36 35 34 33 33 32 32 32 31 32 32 32 32 32 33 33 33 33 32
72 75 77 79 81 82 82 82 80 76 70 64 59 55 51 47 44 42 41 39 38 38 38 37 35 34 33 32 32 31 31 31 31 31 32 32 32 32 32 32 32 31 31
76 78 80 82 82 82 81 79 75 70 65 59 52 48 46 42 40 40 39 38 37 37 36 35 34 33 32 32 31 31 30 30 31 31 31 31 31 31 31 31 30 30 30
79 81 82 83 82 81 78 74 69 64 58 53 47 44 41 38 37 36 36 37 36 36 35 34 33 32 31 31 31 30 30 30 30 30 30 29 29 30 30 30 30 30 30
82 82 83 82 80 77 73 68 62 57 53 47 43 40 38 36 35 34 34 35 35 34 33 32 31 31 30 30 30 29 29 29 29 28 27 27 27 28 28 29 29 30 30
83 82 81 78 75 71 66 62 56 52 47 43 39 36 36 35 34 34 34 33 33 33 32 31 30 30 30 29 29 29 29 28 27 27 26 26 27 27 28 29 29 29 29
81 79 76 73 70 65 60 55 51 47 43 39 36 34 34 33 33 33 33 32 32 31 31 30 29 29 28 28 28 28 27 27 26 26 26 26 27 28 28 29 29 29 30
78 75 71 68 64 59 54 49 45 42 39 36 34 33 33 32 31 31 31 31 30 30 29 29 28 27 27 27 27 26 26 26 26 26 26 27 27 28 29 29 30 30 31
73 69 65 61 57 52 47 43 40 37 35 34 32 32 32 31 31 30 30 30 30 29 28 27 27 26 26 26 26 26 27 26 27 27 27 28 28 29 30 30 31 32 32
66 63 59 54 49 45 42 39 36 34 33 32 31 31 31 30 30 29 29 29 28 27 27 27 27 26 26 26 26 27 27 27 28 29 29 29 30 30 31 31 32 32 33
Wind_Direction
292 292 292 292 292 293 293 293 294 294 295 295 296 297 297 298 298 299 299 299 300 300 300 299 299 298 298 297 296 295 294 293 292 291 290 288 286 285 284 283 281 279 278
292 292 292 292 293 293 294 295 295 296 296 297 298 299 299 299 300 301 301 301 301 301 301 301 300 300 299 298 297 296 295 294 293 293 291 289 287 286 285 283 282 280 279
292 292 292 293 294 294 295 296 296 297 298 299 300 300 301 302 302 302 302 303 303 303 303 302 302 301 300 299 298 297 296 295 294 294 293 290 288 287 285 283 282 281 280
292 293 293 294 295 295 296 297 298 299 300 301 302 302 303 303 303 303 304 304 304 304 304 304 303 302 301 300 299 298 296 295 295 294 293 291 289 287 285 284 282 281 281
292 293 294 295 296 297 297 298 299 300 301 302 303 304 304 305 305 305 305 305 305 305 305 304 303 302 301 300 299 298 296 295 294 294 293 291 290 288 286 285 284 282 282
293 294 295 296 297 298 299 300 301 302 303 304 304 305 305 306 306 306 306 306 306 306 306 305 303 302 301 300 298 297 297 296 295 293 292 291 290 289 287 286 285 284 283
293 294 295 297 298 299 300 301 302 303 304 304 305 306 307 307 307 307 307 307 308 307 306 304 303 301 300 299 297 296 296 295 294 293 293 292 291 289 288 287 286 286 285
294 295 296 298 299 300 301 302 303 304 305 305 306 307 308 308 308 308 308 308 308 307 305 304 302 301 299 298 297 296 295 294 293 292 292 292 292 291 289 289 288 287 287
295 296 297 298 299 301 302 303 304 305 306 307 308 308 309 309 309 309 309 309 308 306 305 304 302 301 299 298 297 296 295 293 292 292 291 292 291 290 289 289 288 288 288
296 297 298 299 301 302 303 304 305 306 307 308 309 309 310 310 310 309 309 308 307 306 304 303 302 301 299 298 297 296 295 294 292 291 291 292 291 290 289 289 288 288 288
296 298 299 300 302 303 304 306 307 308 308 309 310 310 310 310 310 309 308 307 307 305 304 303 302 301 300 298 298 297 296 295 293 291 291 291 290 289 288 287 287 288 288
298 299 300 302 303 305 306 307 308 309 309 310 310 311 311 310 309 308 307 307 306 305 304 303 302 302 300 299 298 298 296 295 294 292 292 292 290 288 287 286 286 287 287
299 300 302 303 305 306 307 308 309 310 310 311 311 311 311 310 309 307 307 306 305 305 305 304 303 302 301 299 298 298 296 295 294 293 293 292 291 289 288 287 287 286 286
301 302 304 305 306 308 309 310 310 311 311 311 311 311 310 310 308 306 306 305 304 304 304 304 303 302 301 300 299 298 296 295 294 293 293 292 291 290 290 289 289 288 286
303 304 305 307 308 309 309 310 311 311 312 312 311 311 310 309 308 306 305 305 305 304 304 304 303 301 300 300 299 297 296 295 294 294 293 293 292 291 291 290 290 289 288
304 306 307 308 309 309 310 310 311 312 312 312 311 310 309 309 308 306 306 306 306 306 307 307 305 303 302 301 300 297 296 295 294 294 294 294 293 292 292 292 290 289 288
306 307 308 309 309 310 310 311 311 311 311 311 309 308 308 308 307 306 306 306 307 307 308 308 306 305 303 303 301 299 297 296 295 294 294 294 294 293 293 292 291 290 288
307 308 309 309 310 310 311 311 311 311 311 310 308 306 306 306 306 306 305 306 307 307 308 308 307 306 305 304 302 301 300 298 297 295 295 294 294 294 293 293 292 291 289
308 308 309 309 310 310 311 311 311 311 310 309 307 305 304 304 304 305 305 306 307 308 308 308 307 306 305 304 303 302 301 300 299 298 296 295 294 294 294 294 293 292 291
308 309 309 309 310 310 310 310 310 310 309 308 306 304 302 302 303 303 304 306 307 308 308 308 307 306 305 304 304 303 302 302 301 300 298 297 295 295 295 295 294 293 292
308 309 309 309 310 310 310 309 309 308 308 306 305 303 303 303 303 304 305 306 307 308 307 307 307 306 306 305 305 305 304 304 303 302 300 299 298 297 297 296 296 294 293
309 309 309 309 310 309 309 308 307 307 306 305 303 302 303 304 304 305 307 307 308 308 308 307 307 306 306 305 305 306 306 305 304 303 303 302 301 300 299 298 298 296 294
309 309 309 309 309 309 308 307 306 305 304 303 301 301 302 303 304 305 307 307 308 308 308 307 307 307 306 306 307 307 307 306 305 305 304 303 302 301 300 299 299 297 296
309 309 309 309 309 308 307 305 304 303 302 301 300 301 302 303 303 305 306 307 308 308 307 307 307 307 307 307 308 308 309 309 307 307 306 305 304 302 301 300 299 298 296
308 308 308 308 308 307 306 305 303 302 301 300 299 300 302 302 303 304 306 307 308 308 307 307 308 308 308 308 308 309 309 309 308 308 307 307 306 305 303 301 300 298 297
308 308 308 308 307 306 305 304 302 301 300 299 299 301 301 302 302 304 305 306 307 307 307 307 308 309 308 308 308 309 310 309 309 309 308 308 307 306 304 303 302 300 299
Height
5728 5725 5721 5718 5715 5711 5708 5704 5700 5696 5691 5687 5682 5677 5671 5666 5659 5653 5646 5639 5632 5624 5616 5607 5599 5590 5581 5572 5562 5553 5544 5534 5527 5533 5527 5518 5509 5503 5498 5494 5490 5487 5485
5717 5714 5711 5708 5704 5700 5696 5692 5688 5683 5678 5673 5668 5662 5656 5649 5642 5635 5628 5620 5612 5604 5595 5585 5576 5566 5557 5547 5538 5529 5520 5510 5501 5501 5502 5493 5485 5478 5473 5470 5467 5464 5462
5707 5703 5700 5696 5693 5689 5684 5680 5675 5670 5665 5659 5653 5646 5639 5632 5625 5617 5609 5601 5592 5582 5573 5563 5553 5542 5533 5523 5514 5505 5496 5488 5479 5474 5475 5470 5463 5457 5452 5450 5447 5444 5442
5696 5692 5688 5684 5680 5676 5671 5666 5661 5656 5650 5644 5637 5630 5622 5614 5606 5597 5589 5580 5571 5561 5551 5540 5529 5519 5509 5500 5491 5483 5474 5466 5459 5453 5451 5449 5445 5439 5434 5432 5430 5428 5426
5684 5680 5676 5672 5668 5663 5658 5653 5647 5641 5635 5628 5621 5613 5604 5596 5586 5577 5569 5560 5550 5541 5530 5518 5507 5497 5487 5477 5469 5462 5454 5447 5441 5436 5433 5430 5428 5423 5419 5416 5414 5413 5412
5672 5668 5664 5659 5654 5649 5644 5638 5632 5626 5619 5611 5604 5595 5587 5577 5567 5557 5547 5538 5529 5519 5508 5497 5486 5476 5467 5458 5450 5442 5435 5429 5424 5420 5417 5415 5412 5409 5405 5402 5399 5398 5397
5660 5655 5651 5646 5641 5635 5629 5623 5617 5610 5603 5595 5586 5577 5568 5558 5547 5537 5526 5516 5507 5496 5485 5476 5466 5457 5447 5440 5433 5426 5420 5414 5409 5405 5403 5400 5397 5394 5391 5389 5386 5384 5383
5647 5643 5638 5633 5627 5621 5615 5608 5601 5594 5586 5577 5568 5559 5549 5538 5527 5516 5506 5496 5486 5475 5464 5455 5446 5439 5429 5422 5416 5412 5407 5402 5396 5392 5389 5387 5384 5381 5377 5375 5372 5371 5370
5634 5629 5624 5618 5613 5606 5600 5592 5585 5577 5568 5559 5550 5539 5529 5519 5507 5495 5484 5475 5465 5456 5446 5436 5427 5420 5413 5405 5400 5396 5393 5389 5384 5379 5376 5374 5371 5368 5365 5362 5360 5358 5358
5621 5616 5610 5604 5598 5591 5583 5576 5567 5558 5550 5541 5531 5520 5509 5499 5487 5475 5463 5453 5445 5437 5429 5420 5411 5403 5397 5391 5386 5382 5379 5375 5371 5368 5365 5362 5359 5356 5353 5350 5348 5346 5345
5608 5602 5596 5589 5582 5574 5567 5558 5549 5541 5532 5522 5513 5503 5490 5478 5467 5455 5443 5432 5424 5418 5411 5404 5397 5389 5383 5378 5373 5368 5365 5361 5358 5356 5353 5351 5348 5345 5342 5340 5337 5335 5334
5594 5587 5581 5574 5566 5558 5549 5541 5531 5521 5512 5502 5492 5483 5471 5458 5446 5435 5425 5415 5405 5399 5394 5388 5382 5376 5370 5365 5361 5356 5352 5349 5346 5344 5341 5339 5336 5334 5332 5329 5327 5325 5323
5579 5572 5565 5558 5549 5541 5532 5522 5513 5502 5491 5481 5471 5461 5452 5440 5428 5416 5407 5399 5391 5384 5379 5373 5368 5363 5358 5354 5349 5345 5341 5337 5335 5332 5330 5328 5325 5323 5321 5319 5317 5315 5313
5563 5556 5549 5541 5533 5524 5514 5504 5493 5482 5471 5460 5449 5439 5431 5421 5410 5400 5392 5385 5378 5372 5366 5361 5356 5351 5346 5341 5338 5333 5330 5326 5323 5321 5319 5317 5315 5312 5310 5308 5306 5304 5302
5547 5540 5532 5524 5515 5506 5497 5486 5474 5463 5449 5438 5428 5417 5408 5403 5394 5384 5376 5371 5365 5359 5354 5350 5345 5340 5335 5331 5327 5323 5319 5316 5313 5311 5308 5306 5304 5302 5299 5297 5295 5293 5291
5531 5523 5515 5506 5497 5487 5477 5469 5457 5444 5432 5419 5407 5397 5389 5382 5376 5370 5363 5358 5352 5347 5342 5338 5333 5329 5324 5320 5316 5313 5309 5306 5303 5300 5298 5295 5293 5291 5289 5286 5284 5281 5279
5514 5505 5496 5487 5477 5467 5457 5446 5439 5430 5417 5403 5391 5381 5373 5367 5362 5356 5351 5346 5341 5336 5331 5327 5322 5318 5314 5310 5306 5303 5300 5296 5293 5290 5288 5285 5283 5280 5278 5275 5273 5270 5268
5496 5487 5477 5467 5457 5446 5436 5425 5415 5406 5400 5391 5379 5368 5360 5355 5350 5344 5339 5335 5331 5326 5321 5316 5312 5308 5304 5300 5296 5293 5290 5286 5283 5280 5278 5275 5272 5270 5267 5264 5262 5259 5258
5478 5468 5457 5447 5437 5426 5415 5405 5395 5386 5378 5371 5364 5357 5349 5344 5339 5334 5328 5324 5320 5316 5311 5307 5302 5298 5294 5290 5287 5283 5280 5277 5274 5270 5267 5265 5262 5259 5257 5254 5251 5249 5247
5459 5448 5437 5426 5416 5406 5395 5385 5376 5368 5361 5354 5348 5343 5338 5333 5329 5325 5320 5314 5310 5306 5301 5297 5293 5289 5285 5281 5277 5274 5271 5267 5264 5261 5258 5255 5252 5249 5247 5244 5241 5239 5237
5439 5428 5417 5406 5395 5385 5376 5367 5359 5352 5346 5340 5335 5330 5325 5321 5318 5314 5310 5305 5300 5296 5292 5288 5284 5280 5276 5272 5269 5265 5262 5258 5255 5251 5248 5245 5242 5240 5237 5234 5232 5229 5227
5417 5407 5397 5386 5376 5367 5358 5350 5343 5337 5331 5327 5323 5319 5315 5310 5307 5303 5299 5295 5291 5286 5282 5278 5275 5271 5267 5264 5260 5257 5253 5250 5246 5243 5240 5237 5234 5231 5228 5225 5222 5219 5217
5396 5386 5377 5367 5358 5349 5341 5335 5328 5323 5319 5314 5311 5308 5305 5301 5297 5293 5289 5286 5281 5277 5273 5269 5266 5262 5259 5255 5252 5248 5245 5241 5238 5235 5232 5228 5225 5222 5219 5216 5212 5209 5207
5376 5367 5358 5349 5341 5333 5326 5320 5315 5311 5307 5303 5300 5298 5294 5291 5287 5284 5280 5276 5272 5269 5265 5261 5258 5254 5251 5247 5244 5240 5237 5233 5230 5227 5223 5220 5216 5213 5209 5206 5203 5199 5196
5357 5348 5340 5332 5325 5318 5312 5308 5303 5299 5296 5293 5290 5288 5284 5281 5278 5275 5271 5267 5264 5260 5256 5253 5249 5246 5243 5239 5236 5233 5229 5225 5222 5218 5215 5211 5207 5203 5200 5196 5193 5189 5185
5340 5331 5324 5317 5311 5305 5300 5296 5292 5289 5286 5283 5280 5278 5275 5272 5269 5266 5262 5259 5255 5252 5248 5245 5242 5238 5235 5232 5228 5225 5221 5217 5213 5209 5205 5202 5198 5194 5190 5186 5182 5178 5174